"Pseudo-MPEC" for P21FxrU

Created 2023 Jun 7 19:22:06 UT using Find_Orb

Click here for an explanation of pseudo-MPECs

 
 Astrometry: 
     P21FxrU* C2023 05 18hG,6+H\F+GVb=vFWYAstrometryB(iSSredacted;F'clickX5DyF52
     P21FxrU  C2023 05 18u_r,X.ljherel27HNfor/yNf2pn!#GG+6)Y2h,*Od8uE(g1tj_)CF52
     P21FxrU  C2023 05 18gI/]1a?2FEI)Y5Ke?T)WON9q93;xp^?@m#^X#k#nG6)L!'^YVgr'F52
     P21FxrU  C2023 05 18`B%VZxv(!4`sl+explanation7oS8+\e`^lDq1D^l*Zq`;I7w%%7F52

Station data:
(F52) Pan-STARRS 2, Haleakala  (N20.707382 W156.255910)  US/Hawaii.
   Observers J. Bulger, T. Dukes, T. Lowe, A. Schultz, M. Willman. Measurers
   K. Chambers, S. Chastel, T. de Boer, L. Denneau, J. Fairlamb, H.
   Flewelling, M. Huber, C.-C. Lin, E. Magnier, Y. Ramanjooloo, R. Wainscoat,
   R. Weryk. 1.8-m Ritchey-Chrétien + CCD.

Orbital elements:  P21FxrU
   Perihelion 2023 Mar 27.49627 +/- 1663 TT = 11:54:37 (JD 2460030.99627)
Epoch 2023 May 18.0 TT = JDT 2460082.5   Earth MOID: 0.4523   Ma: 0.0172
M  11.53898599 +/- 11               (J2000 ecliptic)             AutoNEOCP
n   0.22404174 +/- 0.142            Peri.  198.74169 +/- 58
a   2.68482974 +/- 1.14             Node     0.98958 +/- 32
e   0.4583554 +/- 0.227             Incl.    0.99303 +/- 31
P   4.40                   H 22.12  G  0.15   U 11.6  SR
q 1.45422330 +/- 5.63    Q 3.91543619 +/- 218
From 4 observations 2023 May 18 (49.5 min); mean residual 0".06
Residuals in arcseconds: 
230518 F52  .04+  .08+    230518 F52  .03-  .04-    
230518 F52  .04-  .10-    230518 F52  .03+  .06+    

Ephemerides (geocentric):
Date (UTC) HH   RA             Dec           delta  r     elong  mag " sig PA
---- --------  ------------   ------------  ------ ------ -----  --- --------
2023 06 07 19  14 59 43.706   -19 22 29.87  .64069 1.6073 151.5 23.2 8000 179
2023 06 07 20  14 59 44.700   -19 22 32.65  .64098 1.6074 151.5 23.2 8047 179
2023 06 07 21  14 59 45.698   -19 22 35.43  .64127 1.6076 151.4 23.2 8095 179
2023 06 07 22  14 59 46.699   -19 22 38.22  .64156 1.6078 151.4 23.2 8143 179
2023 06 07 23  14 59 47.702   -19 22 41.03  .64185 1.6079 151.4 23.2 8192 179
2023 06 08 00  14 59 48.709   -19 22 43.84  .64214 1.6081 151.3 23.2 8242 179
2023 06 08 01  14 59 49.719   -19 22 46.66  .64243 1.6082 151.3 23.2 8292 179
2023 06 08 02  14 59 50.731   -19 22 49.49  .64272 1.6084 151.3 23.2 8342 178
2023 06 08 03  14 59 51.747   -19 22 52.32  .64302 1.6086 151.2 23.2 8393 178
2023 06 08 04  14 59 52.766   -19 22 55.17  .64331 1.6087 151.2 23.2 8445 178
2023 06 08 05  14 59 53.787   -19 22 58.02  .64360 1.6089 151.2 23.2 8497 178
2023 06 08 06  14 59 54.812   -19 23 00.89  .64389 1.6091 151.1 23.2 8550 178
2023 06 08 07  14 59 55.840   -19 23 03.76  .64419 1.6092 151.1 23.2 8604 178
2023 06 08 08  14 59 56.870   -19 23 06.64  .64448 1.6094 151.1 23.2 8658 178
2023 06 08 09  14 59 57.904   -19 23 09.54  .64477 1.6095 151.0 23.2 8713 178
2023 06 08 10  14 59 58.941   -19 23 12.44  .64507 1.6097 151.0 23.2 8769 178
2023 06 08 11  14 59 59.980   -19 23 15.34  .64536 1.6099 150.9 23.2 8825 178
2023 06 08 12  15 00 01.023   -19 23 18.26  .64565 1.6100 150.9 23.2 8882 178
2023 06 08 13  15 00 02.069   -19 23 21.19  .64595 1.6102 150.9 23.2 8940 178
2023 06 08 14  15 00 03.117   -19 23 24.12  .64624 1.6104 150.8 23.2 8998 178
2023 06 08 15  15 00 04.169   -19 23 27.07  .64654 1.6105 150.8 23.2 9057 178
2023 06 08 16  15 00 05.224   -19 23 30.02  .64683 1.6107 150.8 23.2 9117 178
2023 06 08 17  15 00 06.282   -19 23 32.99  .64713 1.6109 150.7 23.2 9178 178
2023 06 08 18  15 00 07.342   -19 23 35.96  .64743 1.6110 150.7 23.2 9240 178
2023 06 08 19  15 00 08.406   -19 23 38.94  .64772 1.6112 150.7 23.2 9302 178
2023 06 08 20  15 00 09.473   -19 23 41.93  .64802 1.6113 150.6 23.2 9365 178
2023 06 08 21  15 00 10.542   -19 23 44.93  .64831 1.6115 150.6 23.2 9429 178
2023 06 08 22  15 00 11.615   -19 23 47.93  .64861 1.6117 150.6 23.2 9494 178
2023 06 08 23  15 00 12.691   -19 23 50.95  .64891 1.6118 150.5 23.2 9560 178
2023 06 09 00  15 00 13.769   -19 23 53.98  .64920 1.6120 150.5 23.2 9627 178
2023 06 09 01  15 00 14.851   -19 23 57.01  .64950 1.6122 150.4 23.2 9695 178
2023 06 09 02  15 00 15.936   -19 24 00.06  .64980 1.6123 150.4 23.2 9764 178
2023 06 09 03  15 00 17.024   -19 24 03.11  .65010 1.6125 150.4 23.2 9833 178
2023 06 09 04  15 00 18.114   -19 24 06.17  .65040 1.6126 150.3 23.2 9904 178
2023 06 09 05  15 00 19.208   -19 24 09.24  .65069 1.6128 150.3 23.2 9976 178
2023 06 09 06  15 00 20.305   -19 24 12.32  .65099 1.6130 150.3 23.2 167' 178
2023 06 09 07  15 00 21.404   -19 24 15.41  .65129 1.6131 150.2 23.2 169' 178
2023 06 09 08  15 00 22.507   -19 24 18.51  .65159 1.6133 150.2 23.2 170' 178
2023 06 09 09  15 00 23.613   -19 24 21.61  .65189 1.6135 150.2 23.2 171' 178
2023 06 09 10  15 00 24.721   -19 24 24.73  .65219 1.6136 150.1 23.2 173' 178
2023 06 09 11  15 00 25.833   -19 24 27.85  .65249 1.6138 150.1 23.2 174' 178
2023 06 09 12  15 00 26.948   -19 24 30.99  .65279 1.6140 150.1 23.2 175' 178
2023 06 09 13  15 00 28.065   -19 24 34.13  .65309 1.6141 150.0 23.2 177' 178
2023 06 09 14  15 00 29.186   -19 24 37.28  .65339 1.6143 150.0 23.2 178' 178
2023 06 09 15  15 00 30.310   -19 24 40.44  .65369 1.6145 150.0 23.2 179' 178
2023 06 09 16  15 00 31.436   -19 24 43.61  .65399 1.6146 149.9 23.2 181' 178
2023 06 09 17  15 00 32.566   -19 24 46.79  .65430 1.6148 149.9 23.2 182' 178
2023 06 09 18  15 00 33.699   -19 24 49.98  .65460 1.6149 149.8 23.2 184' 178